Weather Roundup
Issued by NWS

Home | Current Version | Previous Version | Graphics & Text | Print | Product List | Glossary Off
Versions: 1 2 3 4 5 6 7 8 9 10 11 12 13 14 15 16 17 18 19 20 21 22 23 24 25 26 27 28 29 30 31 32 33 34 35 36 37 38 39 40 41 42 43 44 45 46 47 48 49 50

292
NZUS93 KARX 260010
HRRWXR

CURRENT HOURLY OBSERVATIONS ACROSS
MUCH OF THE UPPER MISSISSIPPI VALLEY
NATIONAL WEATHER SERVICE LA CROSSE WI
700 PM CDT TUE JUL 25 2017


...SOUTHEAST MINNESOTA...


CITY           SKY/WX    TMP DP  RH WIND       PRES   REMARKS
ROCHESTER      CLOUDY    77  70  79 S12       30.00S
ROCHESTER/MAYO FAIR      78  70  74 SE8       29.99S
WINONA         SUNNY     77  64  65 SE5       29.98S
AUSTIN         CLOUDY    79  70  73 S9        29.98S
ALBERT LEA     CLOUDY    81  72  74 S12G17    29.98R
DODGE CENTER   CLOUDY    77  70  78 S12G17    29.99R
PRESTON        SUNNY     76  67  74 S12       30.02R
OWATONNA       CLOUDY    81  72  74 S10       29.97R
FARIBAULT      CLOUDY    81  72  74 CALM      29.97R
$$

...ELSEWHERE IN MINNESOTA...


CITY           SKY/WX    TMP DP  RH WIND       PRES   REMARKS
MINNEAPOLIS    TSTM      80  73  79 S9        29.96R
INTNL FALLS    CLOUDY    72  66  81 SW10G18   29.85S
DULUTH         CLOUDY    69  64  84 S3        29.92F
RED WING       CLOUDY    81  66  61 CALM      29.97R
REDWOOD FALLS  LGT RAIN  79  73  82 VRB7G20   29.93R
MANKATO        CLOUDY    81  74  79 S5        29.95R
WORTHINGTON    CLOUDY    82  73  74 S5        29.95R
FAIRMONT       CLOUDY    80  75  84 S6        29.95R
$$

...SOUTHWEST WISCONSIN...


CITY           SKY/WX    TMP DP  RH WIND       PRES   REMARKS
LA CROSSE      SUNNY     81  68  64 S14       29.98F
PRAIRIE DU CHI SUNNY     79  65  62 SE9       30.03S
BOSCOBEL       SUNNY     80  66  62 S8        30.04F
LONE ROCK      SUNNY     77  67  71 S12       30.05F
PLATTEVILLE    SUNNY     77  69  76 S12G20    30.07F
FORT MC COY    MOSUNNY   76  66  70 S8        30.02F
CAMP DOUGLAS   PTSUNNY   75  66  73 S8        30.02F
MAUSTON-NEW LI PTCLDY    76  67  73 SE9       30.03S
VIROQUA        FAIR      75  68  80 S10       30.04F
WIS DELLS      MOSUNNY   76  63  65 S9        30.06F
$$

...ELSEWHERE IN WISCONSIN...


CITY           SKY/WX    TMP DP  RH WIND       PRES   REMARKS
MILWAUKEE      PTSUNNY   74  59  59 S12       30.12S
MADISON        NOT AVBL
GREEN BAY      CLOUDY    72  63  73 S9        30.08F
EAU CLAIRE     MOSUNNY   75  65  70 S9        29.99R
BLACK RVR FLS  FAIR      78  65  65 S6        30.00R
MEDFORD        RAIN      70  61  74 S6        30.04R
WAUSAU         MOSUNNY   73  62  68 S12       30.01F
WIS RAPIDS     SUNNY     77  62  59 S12       30.04F
MARSHFIELD     CLOUDY    74  61  63 S14       30.02F
RICE LAKE      CLOUDY    74  65  71 SE12      29.99F
$$

...NORTHEAST IOWA...


CITY           SKY/WX    TMP DP  RH WIND       PRES   REMARKS
WATERLOO       NOT AVBL
DUBUQUE        SUNNY     77  67  71 S10G22    30.08F
DECORAH        SUNNY     77  68  73 S10       30.02S
MASON CITY     CLOUDY    80  72  76 S12       30.00R
CHARLES CITY   CLOUDY    79  72  78 S13       30.01S
OELWEIN        SUNNY     79  70  73 S12G18    30.03F
$$

...ELSEWHERE IN IOWA...


CITY           SKY/WX    TMP DP  RH WIND       PRES   REMARKS
DES MOINES     PTSUNNY   92  71  50 S14       29.98R HX  98
IOWA CITY      SUNNY     82  69  64 SE8       30.06F
FORT DODGE     CLOUDY    88  72  58 S12       29.97F HX  94
MARSHALLTOWN   CLOUDY    84  71  65 SE12      30.01R
CEDAR RAPIDS   NOT AVBL
$$

...NORTHERN ILLINOIS...


CITY           SKY/WX    TMP DP  RH WIND       PRES   REMARKS
CHICAGO-OHARE  CLOUDY    77  56  48 SE14      30.11F
CHICAGO-MIDWAY PTSUNNY   79  55  43 SE14      30.12S
MOLINE         SUNNY     81  68  64 SE7       30.07F
ROCKFORD       PTSUNNY   78  61  55 S14       30.12S
PEORIA         SUNNY     81  66  60 SE8       30.10F
$$

NOTE: "FAIR" INDICATES FEW OR NO CLOUDS BELOW 12,000 FEET WITH NO
SIGNIFICANT WEATHER AND/OR OBSTRUCTIONS TO VISIBILITY. WIND
SPEEDS ARE IN MILES-PER-HOUR.




USA.gov is the U.S. government's official web portal to all federal, state and local government web resources and services.